W7KKE-3 Weather Reports


time (UTC)temp
C
wind
direction
speed
KPH
gust
KPH
rain 1hr
cm
rain 24hr
cm
rain mn
cm
humidity
%
barometer
mb
20260503185147 21 224 0.0 4.8 0.00 0.00 0.00 71 1006.7
20260503184645 20 260 0.0 4.8 0.00 0.00 0.00 73 1006.7
20260503184145 20 281 0.0 4.8 0.00 0.00 0.00 71 1006.8
20260503183645 20 322 1.6 4.8 0.00 0.00 0.00 73 1006.7
20260503183145 20 292 1.6 4.8 0.00 0.00 0.00 71 1006.7
20260503182645 20 285 0.0 4.8 0.00 0.00 0.00 74 1006.8
20260503182144 19 319 1.6 4.8 0.00 0.00 0.00 74 1006.8
20260503181644 19 296 1.6 3.2 0.00 0.00 0.00 74 1006.8
20260503181145 20 277 1.6 3.2 0.00 0.00 0.00 72 1006.8
20260503180644 20 291 0.0 3.2 0.00 0.00 0.00 73 1006.7
20260503180148 20 302 0.0 3.2 0.00 0.00 0.00 74 1006.7
20260503175645 20 287 0.0 3.2 0.00 0.00 0.00 73 1006.7
20260503175144 19 309 0.0 3.2 0.00 0.00 0.00 75 1006.7
20260503174644 18 0 0.0 0.0 0.00 0.00 0.00 76 1006.7
20260503174145 18 0 0.0 0.0 0.00 0.00 0.00 77 1006.7
20260503173645 18 284 0.0 0.0 0.00 0.00 0.00 78 1006.7
20260503173145 17 303 0.0 4.8 0.00 0.00 0.00 78 1006.8
20260503172646 17 288 1.6 4.8 0.00 0.00 0.00 77 1006.8
20260503172145 17 303 1.6 4.8 0.00 0.00 0.00 78 1006.8
20260503171645 17 296 0.0 4.8 0.00 0.00 0.00 77 1006.8
20260503170738 16 289 0.0 3.2 0.00 0.00 0.00 80 1006.8
20260503170645 16 289 0.0 3.2 0.00 0.00 0.00 80 1006.8
20260503170147 16 316 1.6 4.8 0.00 0.00 0.00 81 1006.7
20260503150644 12 298 3.2 6.4 0.00 0.00 0.00 88 1006.5
20260503150148 12 102 4.8 4.8 0.00 0.00 0.00 89 1006.5
20260503140147 10 0 0.0 3.2 0.00 0.00 0.00 88 1006.7
20260503131145 10 112 8.0 12.9 0.00 0.00 0.00 88 1006.2
20260503130644 10 107 11.3 12.9 0.00 0.00 0.00 88 1006.1
20260503130146 10 103 8.0 12.9 0.00 0.00 0.00 88 1006.2
20260503120146 9 113 0.0 3.2 0.00 0.00 0.00 87 1006.7
20260503110645 9 58 0.0 6.4 0.00 0.00 0.00 87 1006.8
20260503110146 9 96 0.0 6.4 0.00 0.00 0.00 87 1006.8
20260503081147 10 0 0.0 3.2 0.00 0.00 0.00 86 1008.2
20260503080644 10 340 0.0 3.2 0.00 0.00 0.00 85 1008.3
20260503072144 11 103 3.2 6.4 0.00 0.00 0.00 85 1008.6
20260503071645 11 95 1.6 6.4 0.00 0.00 0.00 85 1008.5
20260503071145 11 102 6.4 6.4 0.00 0.00 0.00 85 1008.6
20260503070148 11 0 1.6 3.2 0.00 0.00 0.00 85 1008.6
20260503054644 12 102 0.0 3.2 0.00 0.00 0.00 84 1008.9
20260503054145 12 0 1.6 3.2 0.00 0.00 0.00 84 1008.8
20260503053645 12 100 0.0 3.2 0.00 0.00 0.00 84 1008.9
20260503053144 12 107 0.0 3.2 0.00 0.00 0.00 84 1008.9
20260503052646 12 116 0.0 4.8 0.00 0.00 0.00 84 1008.8
20260503052144 12 77 0.0 4.8 0.00 0.00 0.00 84 1008.8
20260503051644 12 109 1.6 4.8 0.00 0.00 0.00 84 1008.9
20260503051145 12 0 0.0 1.6 0.00 0.00 0.00 84 1008.9
20260503050644 12 8 0.0 1.6 0.00 0.00 0.00 84 1008.8
20260503045644 12 320 0.0 8.0 0.00 0.00 0.00 84 1008.8
20260503045145 12 334 3.2 8.0 0.00 0.00 0.00 84 1008.8
20260503044644 12 347 0.0 8.0 0.00 0.00 0.00 84 1008.8
20260503044145 12 329 1.6 9.7 0.00 0.00 0.00 84 1008.9
20260503043644 12 0 0.0 9.7 0.00 0.00 0.00 84 1009.0
20260503043144 12 327 0.0 9.7 0.00 0.00 0.00 84 1008.9
20260503042646 12 315 1.6 9.7 0.00 0.00 0.00 84 1008.9
20260503042144 12 340 6.4 14.5 0.00 0.00 0.00 84 1008.9
20260503041645 12 319 4.8 14.5 0.00 0.00 0.00 84 1008.9
20260503040644 12 306 11.3 19.3 0.00 0.00 0.00 84 1008.8
20260503035646 12 303 12.9 19.3 0.00 0.00 0.00 84 1008.8
20260503035144 12 334 11.3 20.9 0.00 0.00 0.00 83 1008.8
20260503034644 12 319 9.7 20.9 0.00 0.00 0.00 83 1008.8
20260503034145 12 316 11.3 20.9 0.00 0.00 0.00 83 1008.8
20260503033644 12 319 12.9 16.1 0.00 0.00 0.00 83 1008.8
20260503033144 12 322 8.0 17.7 0.00 0.00 0.00 83 1008.7
20260503032644 13 331 9.7 17.7 0.00 0.00 0.00 82 1008.7
20260503032220 13 319 9.7 17.7 0.00 0.00 0.00 82 1008.6
20260503032144 13 319 9.7 17.7 0.00 0.00 0.00 82 1008.6
20260503031644 13 336 9.7 16.1 0.00 0.00 0.00 82 1008.7
20260503031145 13 344 12.9 12.9 0.00 0.00 0.00 82 1008.6
20260503030644 13 331 6.4 11.3 0.00 0.00 0.00 82 1008.8
20260503025644 13 303 8.0 12.9 0.00 0.00 0.00 81 1008.8
20260503024644 13 322 3.2 12.9 0.00 0.00 0.00 81 1008.9
20260503024145 13 340 6.4 19.3 0.00 0.00 0.00 81 1008.8
20260503023644 13 312 11.3 19.3 0.00 0.00 0.00 81 1008.8
20260503023144 13 330 9.7 19.3 0.00 0.00 0.00 81 1008.7
20260503022644 13 333 11.3 17.7 0.00 0.00 0.00 81 1008.5
20260503022144 13 326 8.0 17.7 0.00 0.00 0.00 81 1008.4
20260503021645 13 294 9.7 24.1 0.00 0.00 0.00 81 1008.4
20260503020644 13 327 12.9 24.1 0.00 0.00 0.00 80 1008.5
20260503015646 13 296 11.3 19.3 0.00 0.00 0.00 80 1008.5
20260503015144 14 331 9.7 24.1 0.00 0.00 0.00 80 1008.6
20260503014644 14 319 17.7 24.1 0.00 0.00 0.00 80 1008.5
20260503014145 14 343 12.9 24.1 0.00 0.00 0.00 80 1008.5
20260503013645 14 327 16.1 24.1 0.00 0.00 0.00 80 1008.6
20260503013144 14 340 12.9 24.1 0.00 0.00 0.00 80 1008.6
20260503012644 14 351 16.1 24.1 0.00 0.00 0.00 80 1008.8
20260503012144 13 315 12.9 24.1 0.00 0.00 0.00 80 1008.8
20260503011644 13 322 11.3 24.1 0.00 0.00 0.00 80 1008.8
20260503011144 14 310 16.1 24.1 0.00 0.00 0.00 80 1008.8
20260503010644 14 336 8.0 24.1 0.00 0.00 0.00 80 1008.8
20260503005646 14 337 16.1 29.0 0.00 0.00 0.00 79 1008.8
20260503005144 14 326 12.9 29.0 0.00 0.00 0.00 80 1008.8
20260503004644 14 333 14.5 22.5 0.00 0.00 0.00 80 1008.9
20260503004147 14 329 16.1 25.7 0.00 0.00 0.00 80 1008.9
20260503003644 14 324 14.5 25.7 0.00 0.00 0.00 80 1008.8
20260503003143 14 323 16.1 25.7 0.00 0.00 0.00 80 1008.8
20260503002646 14 322 14.5 22.5 0.00 0.00 0.00 79 1008.8
20260503002145 14 323 14.5 29.0 0.00 0.00 0.00 79 1008.8
20260503001644 14 333 16.1 29.0 0.00 0.00 0.00 79 1008.8
20260503001144 14 341 17.7 29.0 0.00 0.00 0.00 79 1008.8
20260503000645 13 312 12.9 32.2 0.00 0.00 0.00 80 1008.9
20260502235646 13 313 17.7 32.2 0.00 0.00 0.00 80 1008.9
20260502235144 13 333 16.1 25.7 0.00 0.00 0.00 80 1008.9
20260502234644 13 312 14.5 29.0 0.00 0.00 0.00 80 1009.0
20260502233644 13 331 12.9 29.0 0.00 0.00 0.00 80 1009.1
20260502233144 13 337 19.3 25.7 0.00 0.00 0.00 79 1009.2
20260502232644 13 327 16.1 25.7 0.00 0.00 0.00 79 1009.3
20260502232144 14 317 14.5 25.7 0.00 0.00 0.00 79 1009.3
20260502231644 14 329 17.7 24.1 0.00 0.00 0.00 78 1009.4
20260502231147 14 327 12.9 29.0 0.00 0.00 0.00 78 1009.4
20260502230644 14 333 16.1 29.0 0.00 0.00 0.00 78 1009.5
20260502225144 15 347 16.1 25.7 0.00 0.00 0.00 79 1009.7
20260502224644 14 327 12.9 25.7 0.00 0.00 0.00 79 1009.7
20260502224147 14 324 12.9 27.4 0.00 0.00 0.00 78 1009.8
20260502223645 15 12 14.5 27.4 0.00 0.00 0.00 77 1009.8
20260502223144 15 312 16.1 27.4 0.00 0.00 0.00 77 1009.9
20260502222644 15 333 17.7 24.1 0.00 0.00 0.00 77 1010.0
20260502222143 15 336 16.1 24.1 0.00 0.00 0.00 78 1010.0
20260502221644 15 326 16.1 22.5 0.00 0.00 0.00 77 1010.1
20260502221148 15 340 14.5 25.7 0.00 0.00 0.00 78 1010.1
20260502220644 15 327 17.7 25.7 0.00 0.00 0.00 77 1010.2
20260502215645 15 330 16.1 22.5 0.00 0.00 0.00 77 1010.2
20260502215144 15 331 14.5 22.5 0.00 0.00 0.00 78 1010.2
20260502214644 15 337 12.9 22.5 0.00 0.00 0.00 78 1010.2
20260502213644 14 322 12.9 19.3 0.00 0.00 0.00 79 1010.2
20260502213144 14 340 11.3 19.3 0.00 0.00 0.00 79 1010.2
20260502212644 14 323 12.9 17.7 0.00 0.00 0.00 79 1010.2
20260502212145 14 323 9.7 17.7 0.00 0.00 0.00 79 1010.3
20260502211644 14 334 12.9 19.3 0.00 0.00 0.00 78 1010.4
20260502211144 14 336 8.0 19.3 0.00 0.00 0.00 78 1010.5
20260502210644 14 317 9.7 19.3 0.00 0.00 0.00 77 1010.6
20260502205646 15 347 9.7 16.1 0.00 0.00 0.00 78 1010.6
20260502205144 15 313 9.7 19.3 0.00 0.00 0.00 78 1010.6
20260502204643 15 309 11.3 19.3 0.00 0.00 0.00 77 1010.7
20260502204147 15 336 8.0 19.3 0.00 0.00 0.00 77 1010.8
20260502203644 15 298 8.0 16.1 0.00 0.00 0.00 77 1010.9
20260502203144 15 289 8.0 16.1 0.00 0.00 0.00 78 1010.9
20260502202644 14 324 9.7 16.1 0.00 0.00 0.00 78 1011.0
20260502202143 14 327 9.7 14.5 0.00 0.00 0.00 78 1011.0
20260502201644 14 301 6.4 17.7 0.00 0.00 0.00 78 1011.0
20260502201145 14 320 9.7 17.7 0.00 0.00 0.00 78 1011.1
20260502200643 14 312 11.3 17.7 0.00 0.00 0.00 78 1011.0
20260502195646 15 344 9.7 20.9 0.00 0.00 0.00 76 1011.0
20260502195144 15 322 12.9 20.9 0.00 0.00 0.00 74 1011.2
20260502194644 16 331 16.1 19.3 0.00 0.00 0.00 72 1011.3
20260502194147 16 340 8.0 22.5 0.00 0.00 0.00 72 1011.5
20260502193643 17 280 9.7 22.5 0.00 0.00 0.00 73 1011.5
20260502193144 16 323 12.9 22.5 0.00 0.00 0.00 74 1011.2
20260502192644 16 315 16.1 24.1 0.00 0.00 0.00 74 1011.3
20260502192144 16 334 12.9 24.1 0.00 0.00 0.00 74 1011.4
20260502191644 16 322 16.1 24.1 0.00 0.00 0.00 74 1011.5
20260502190643 16 322 16.1 29.0 0.00 0.00 0.00 74 1011.6
20260502185645 16 324 14.5 25.7 0.00 0.00 0.00 75 1011.7